Location: Brookview Estates
(36.0476°N, 86.6931°W)
Time: 02:27:57
(UTC+00:00)

Cosmos 2315 Rocket - Pass Details

Date: 30 March 2020
Orbit: 965 x 1003 km, 82.9° (Epoch: 03 June)

Event Time Altitude Azimuth Distance (km) Brightness Sun altitude
Rises 00:48:18 0° 165° (SSE) 3,668 6.7 -9.1°
Reaches altitude 10° 00:50:55 10° 158° (SSE) 2,729 6.0 -9.7°
Maximum altitude 00:56:44 42° 89° (E) 1,377 4.4 -10.8°
Drops below altitude 10° 01:02:38 10° 21° (NNE) 2,768 6.3 -12.0°
Sets 01:05:18 0° 15° (NNE) 3,725 7.0 -12.5°
